GW1678 Weather Reports


time (UTC)temp
C
wind
direction
speed
KPH
gust
KPH
rain 1hr
cm
rain 24hr
cm
rain mn
cm
humidity
%
barometer
mb
20260504235118 23 341 22.5 25.7 0.00 0.00 0.00 28 1002.3
20260504234615 23 52 4.8 14.5 0.00 0.00 0.00 29 1002.3
20260504234112 23 99 3.2 29.0 0.00 0.00 0.00 28 1002.5
20260504233608 23 69 1.6 9.7 0.00 0.00 0.00 30 1002.5
20260504233104 23 85 1.6 4.8 0.00 0.00 0.00 31 1002.2
20260504232602 23 109 4.8 20.9 0.00 0.00 0.00 29 1002.2
20260504232059 23 64 4.8 8.0 0.00 0.00 0.00 31 1002.3
20260504231555 24 12 9.7 14.5 0.00 0.00 0.00 30 1001.9
20260504231051 24 356 6.4 12.9 0.00 0.00 0.00 30 1002.0
20260504230547 25 34 9.7 17.7 0.00 0.00 0.00 31 1001.9
20260504230047 25 75 6.4 24.1 0.00 0.00 0.00 31 1001.9
20260504225543 25 49 4.8 14.5 0.00 0.00 0.00 32 1001.6
20260504225041 25 353 14.5 32.2 0.00 0.00 0.00 31 1001.5
20260504224537 25 18 6.4 14.5 0.00 0.00 0.00 31 1001.4
20260504224034 25 57 1.6 32.2 0.00 0.00 0.00 32 1001.5
20260504223531 25 264 9.7 12.9 0.00 0.00 0.00 32 1001.3
20260504223027 26 81 0.0 9.7 0.00 0.00 0.00 32 1001.1
20260504222524 26 39 4.8 11.3 0.00 0.00 0.00 30 1000.7
20260504222021 26 56 4.8 9.7 0.00 0.00 0.00 29 1000.5
20260504221518 26 47 6.4 11.3 0.00 0.00 0.00 28 1000.7
20260504221015 26 344 11.3 12.9 0.00 0.00 0.00 27 1000.7
20260504220512 26 41 3.2 16.1 0.00 0.00 0.00 28 1000.6
20260504220009 26 357 0.0 9.7 0.00 0.00 0.00 28 1000.6
20260504215505 26 348 6.4 12.9 0.00 0.00 0.00 28 1000.5
20260504215003 26 0 9.7 16.1 0.00 0.00 0.00 27 1000.5
20260504214458 27 24 9.7 12.9 0.00 0.00 0.00 26 1000.5
20260504213955 28 351 14.5 20.9 0.00 0.00 0.00 27 1000.5
20260504213451 27 21 11.3 17.7 0.00 0.00 0.00 25 1000.5
20260504212949 27 45 6.4 11.3 0.00 0.00 0.00 25 1000.4
20260504212444 27 44 4.8 9.7 0.00 0.00 0.00 25 1000.4
20260504211942 27 82 3.2 8.0 0.00 0.00 0.00 25 1000.3
20260504211438 28 83 1.6 12.9 0.00 0.00 0.00 21 1000.4
20260504210936 27 124 0.0 3.2 0.00 0.00 0.00 23 1000.4
20260504210433 27 59 0.0 9.7 0.00 0.00 0.00 22 1000.5
20260504205930 26 92 0.0 4.8 0.00 0.00 0.00 20 1000.5
20260504205427 27 52 0.0 8.0 0.00 0.00 0.00 22 1000.4
20260504204925 27 331 11.3 12.9 0.00 0.00 0.00 21 1000.6
20260504204423 27 72 1.6 4.8 0.00 0.00 0.00 22 1000.6
20260504203922 27 112 1.6 4.8 0.00 0.00 0.00 21 1000.6
20260504203420 28 91 4.8 16.1 0.00 0.00 0.00 20 1000.7
20260504202915 27 60 8.0 9.7 0.00 0.00 0.00 22 1000.8
20260504202412 26 56 0.0 3.2 0.00 0.00 0.00 21 1000.8
20260504201909 28 23 6.4 12.9 0.00 0.00 0.00 21 1001.0
20260504201406 27 52 6.4 9.7 0.00 0.00 0.00 20 1000.9
20260504200903 27 347 9.7 14.5 0.00 0.00 0.00 21 1000.9
20260504200400 27 46 1.6 9.7 0.00 0.00 0.00 21 1000.9
20260504195857 27 4 17.7 20.9 0.00 0.00 0.00 20 1000.8
20260504195352 27 64 3.2 17.7 0.00 0.00 0.00 22 1001.3
20260504194849 27 36 6.4 12.9 0.00 0.00 0.00 21 1001.1
20260504194345 28 1 11.3 16.1 0.00 0.00 0.00 19 1001.0
20260504193841 26 90 0.0 3.2 0.00 0.00 0.00 24 1001.1
20260504193338 27 322 8.0 12.9 0.00 0.00 0.00 22 1001.2
20260504192837 27 77 0.0 11.3 0.00 0.00 0.00 23 1001.2
20260504192335 26 21 3.2 4.8 0.00 0.00 0.00 24 1001.1
20260504191833 26 43 3.2 4.8 0.00 0.00 0.00 24 1001.3
20260504191330 26 15 8.0 11.3 0.00 0.00 0.00 23 1001.3
20260504190826 27 99 4.8 20.9 0.00 0.00 0.00 22 1001.4
20260504190322 27 32 6.4 14.5 0.00 0.00 0.00 23 1001.4
20260504185819 27 327 9.7 14.5 0.00 0.00 0.00 23 1001.3
20260504185316 26 99 1.6 8.0 0.00 0.00 0.00 24 1001.2
20260504184812 27 26 8.0 12.9 0.00 0.00 0.00 23 1001.2
20260504184308 26 55 0.0 0.0 0.00 0.00 0.00 25 1001.3
20260504183803 27 25 19.3 25.7 0.00 0.00 0.00 22 1001.4
20260504183301 26 348 4.8 12.9 0.00 0.00 0.00 23 1001.4
20260504182759 27 346 6.4 11.3 0.00 0.00 0.00 24 1001.4
20260504182255 26 94 0.0 0.0 0.00 0.00 0.00 26 1001.5
20260504181753 26 322 4.8 9.7 0.00 0.00 0.00 23 1001.4
20260504181250 26 51 1.6 8.0 0.00 0.00 0.00 25 1001.4
20260504180749 26 66 6.4 16.1 0.00 0.00 0.00 24 1001.4
20260504180248 26 352 9.7 20.9 0.00 0.00 0.00 22 1001.5
20260504175745 26 15 8.0 14.5 0.00 0.00 0.00 22 1001.7
20260504175241 26 19 3.2 4.8 0.00 0.00 0.00 25 1001.6
20260504174739 26 91 4.8 4.8 0.00 0.00 0.00 22 1001.6
20260504174237 26 35 8.0 11.3 0.00 0.00 0.00 24 1001.5
20260504173733 26 56 6.4 11.3 0.00 0.00 0.00 25 1001.6
20260504173230 25 62 0.0 0.0 0.00 0.00 0.00 27 1001.6
20260504172727 25 88 0.0 0.0 0.00 0.00 0.00 29 1001.9
20260504172224 25 87 3.2 4.8 0.00 0.00 0.00 26 1002.0
20260504171720 25 65 3.2 4.8 0.00 0.00 0.00 26 1002.1
20260504171217 25 26 3.2 4.8 0.00 0.00 0.00 28 1002.0
20260504170714 25 68 3.2 12.9 0.00 0.00 0.00 29 1002.1
20260504170211 25 78 3.2 20.9 0.00 0.00 0.00 29 1002.4
20260504160129 22 63 3.2 11.3 0.00 0.00 0.00 40 1002.3
20260504151057 19 45 3.2 8.0 0.00 0.00 0.00 46 1002.8
20260504150554 19 70 1.6 8.0 0.00 0.00 0.00 46 1002.7
20260504141020 16 255 6.4 8.0 0.00 0.00 0.00 57 1002.5
20260504140517 16 334 4.8 8.0 0.00 0.00 0.00 59 1002.6
20260504130441 12 89 0.0 0.0 0.00 0.00 0.00 69 1002.3
20260504110328 8 92 0.0 0.0 0.00 0.00 0.00 84 1001.9
20260504100246 8 93 0.0 0.0 0.00 0.00 0.00 79 1002.1
20260504081639 10 92 0.0 0.0 0.00 0.00 0.00 75 1003.2
20260504081135 10 92 0.0 0.0 0.00 0.00 0.00 75 1003.4
20260504080632 10 92 0.0 0.0 0.00 0.00 0.00 76 1003.5
20260504080128 10 92 0.0 0.0 0.00 0.00 0.00 76 1003.7
20260504050445 15 95 0.0 0.0 0.00 0.00 0.00 51 1006.0
20260504045942 15 95 0.0 0.0 0.00 0.00 0.00 51 1005.9
20260504045437 15 95 0.0 0.0 0.00 0.00 0.00 51 1005.9
20260504044934 14 108 0.0 0.0 0.00 0.00 0.00 58 1006.2
20260504044431 14 97 0.0 0.0 0.00 0.00 0.00 61 1006.2
20260504043929 15 93 0.0 0.0 0.00 0.00 0.00 59 1006.3
20260504043425 15 94 0.0 0.0 0.00 0.00 0.00 55 1006.4
20260504042917 15 94 0.0 0.0 0.00 0.00 0.00 55 1006.4
20260504042414 15 94 0.0 0.0 0.00 0.00 0.00 55 1006.5
20260504041910 15 94 0.0 0.0 0.00 0.00 0.00 55 1006.5
20260504041406 15 94 0.0 0.0 0.00 0.00 0.00 55 1006.5
20260504040903 15 94 0.0 0.0 0.00 0.00 0.00 52 1006.4
20260504040400 15 94 0.0 0.0 0.00 0.00 0.00 52 1006.6
20260504035856 17 91 0.0 0.0 0.00 0.00 0.00 48 1006.6
20260504035354 17 91 0.0 0.0 0.00 0.00 0.00 48 1006.7
20260504034850 17 91 0.0 0.0 0.00 0.00 0.00 48 1006.9
20260504034348 17 91 0.0 0.0 0.00 0.00 0.00 48 1006.9
20260504033844 17 91 0.0 0.0 0.00 0.00 0.00 48 1006.8
20260504033343 16 110 1.6 3.2 0.00 0.00 0.00 48 1007.2
20260504032839 15 94 0.0 0.0 0.00 0.00 0.00 53 1007.2
20260504032336 15 92 0.0 0.0 0.00 0.00 0.00 57 1007.2
20260504031833 16 91 0.0 0.0 0.00 0.00 0.00 56 1007.1
20260504031330 16 95 0.0 0.0 0.00 0.00 0.00 51 1007.4
20260504030826 17 95 0.0 0.0 0.00 0.00 0.00 50 1007.5
20260504030324 17 102 0.0 0.0 0.00 0.00 0.00 49 1007.7
20260504025820 16 118 0.0 0.0 0.00 0.00 0.00 50 1007.5
20260504025317 16 95 0.0 0.0 0.00 0.00 0.00 51 1007.2
20260504024814 16 95 0.0 0.0 0.00 0.00 0.00 49 1007.3
20260504024310 17 95 0.0 0.0 0.00 0.00 0.00 49 1007.1
20260504023807 17 95 0.0 0.0 0.00 0.00 0.00 47 1007.2
20260504023303 17 105 0.0 0.0 0.00 0.00 0.00 47 1007.4
20260504022759 17 105 0.0 0.0 0.00 0.00 0.00 47 1007.1
20260504022256 17 90 0.0 0.0 0.00 0.00 0.00 47 1007.2
20260504021753 17 92 0.0 0.0 0.00 0.00 0.00 45 1007.0
20260504021250 17 94 0.0 0.0 0.00 0.00 0.00 44 1006.9
20260504020747 18 94 0.0 0.0 0.00 0.00 0.00 44 1006.9
20260504020243 18 94 0.0 0.0 0.00 0.00 0.00 44 1007.0
20260504015739 18 94 0.0 0.0 0.00 0.00 0.00 42 1006.9
20260504015236 19 94 0.0 0.0 0.00 0.00 0.00 41 1007.1
20260504014732 19 95 0.0 0.0 0.00 0.00 0.00 41 1006.9
20260504014229 20 95 0.0 0.0 0.00 0.00 0.00 40 1007.1
20260504013727 19 99 0.0 0.0 0.00 0.00 0.00 40 1006.9
20260504013224 20 93 0.0 0.0 0.00 0.00 0.00 40 1007.0
20260504012720 20 93 0.0 0.0 0.00 0.00 0.00 39 1007.0
20260504012219 21 96 0.0 0.0 0.00 0.00 0.00 37 1006.9
20260504011715 21 96 0.0 0.0 0.00 0.00 0.00 37 1006.9
20260504011212 21 96 0.0 0.0 0.00 0.00 0.00 37 1007.0
20260504010708 21 94 0.0 0.0 0.00 0.00 0.00 36 1007.0
20260504010203 21 93 0.0 0.0 0.00 0.00 0.00 35 1007.1
20260504005700 21 92 0.0 0.0 0.00 0.00 0.00 35 1007.0
20260504005157 21 93 0.0 0.0 0.00 0.00 0.00 35 1007.0
20260504004655 21 92 0.0 0.0 0.00 0.00 0.00 34 1006.9
20260504004152 22 88 0.0 0.0 0.00 0.00 0.00 34 1007.0
20260504003648 22 94 0.0 0.0 0.00 0.00 0.00 34 1007.1
20260504003145 22 91 0.0 0.0 0.00 0.00 0.00 33 1007.1
20260504002642 22 83 0.0 0.0 0.00 0.00 0.00 33 1007.1
20260504002139 22 95 0.0 0.0 0.00 0.00 0.00 33 1007.3
20260504001637 22 52 0.0 1.6 0.00 0.00 0.00 32 1007.3
20260504001133 22 82 0.0 3.2 0.00 0.00 0.00 32 1007.2
20260504000630 22 86 0.0 0.0 0.00 0.00 0.00 32 1007.1
20260504000128 23 100 0.0 0.0 0.00 0.00 0.00 32 1007.3
20260503235626 23 91 0.0 0.0 0.00 0.00 0.00 30 1007.4